Regional Weather Roundup
Issued by NWS

Home | Current Version | Previous Version | Text Only | Print | Product List | Glossary Off
Versions: 1 2 3 4 5 6 7 8 9 10 11 12 13 14 15 16 17 18 19 20 21 22 23 24 25 26 27 28 29 30 31 32 33 34 35 36 37 38 39 40 41 42 43 44 45 46 47 48 49 50

000
ASUS43 KFSD 171602
RWRSD

WEATHER ROUNDUP FOR SOUTH DAKOTA
NATIONAL WEATHER SERVICE SIOUX FALLS SD
1000 AM CST FRI NOV 17 2017

NOTE: "FAIR" INDICATES FEW OR NO CLOUDS BELOW 12,000 FEET WITH NO
SIGNIFICANT WEATHER AND/OR OBSTRUCTIONS TO VISIBILITY.


SDZ001>005-009-010-012>017-171700-
NORTHWEST AND NORTH CENTRAL SOUTH DAKOTA

CITY           SKY/WX    TMP DP  RH WIND       PRES   REMARKS
BUFFALO          N/A     37  33  85 W3        29.61R
FAITH            N/A     38  38 100 W8        29.70R
MOBRIDGE       PTSUNNY   41  31  67 W6        29.68R
$$

SDZ012>016-024>037-041>051-057-063-072>074-171700-
SOUTHWEST AND SOUTH CENTRAL SOUTH DAKOTA

CITY           SKY/WX    TMP DP  RH WIND       PRES   REMARKS
RAPID CTY ARPT CLOUDY    37  35  92 CALM      29.69F
PIERRE         LGT RAIN  39  39 100 NW8       29.69S
CUSTER         CLOUDY    32  30  92 SE3       29.66R
ELLSWORTH AFB  CLOUDY    37  37 100 CALM      29.68
PHILIP         CLOUDY    41  32  70 N12       29.71R
PINE RIDGE     LGT RAIN  39  33  79 CALM      29.70S
SPEARFISH      PTSUNNY   36  34  93 CALM      29.69S FOG
WINNER         CLOUDY    41  33  73 NW13      29.67R
$$

SDZ004>011-016>023-039-040-171700-
NORTHEAST SOUTH DAKOTA

CITY           SKY/WX    TMP DP  RH WIND       PRES   REMARKS
ABERDEEN       CLOUDY    41  33  73 N13       29.67R
WATERTOWN      CLOUDY    36  32  85 NW7       29.61R
BROOKINGS      CLOUDY    39  34  82 W6        29.59F
SISSETON         N/A     34  31  88 S5        29.60F WCI  30
$$

SDZ017-020-022-023-036>040-048>070-171700-
SOUTHEAST SOUTH DAKOTA

CITY           SKY/WX    TMP DP  RH WIND       PRES   REMARKS
SIOUX FALLS    PTSUNNY   48  42  80 SW3       29.58S
HURON          LGT RAIN  37  31  78 NE9       29.63R
CHAMBERLAIN    LGT RAIN  42  35  75 N9        29.66R
MITCHELL       CLOUDY    38  32  79 N17       29.62R
YANKTON        MOSUNNY   46  35  65 SW7       29.57F
$$

ABBREVIATIONS USED IN REMARKS
   TC - TEMPERATURE IN CELSIUS
  WCI - WIND CHILL INDEX
   HX - HEAT INDEX
  VSB - VISIBILITY





USA.gov is the U.S. government's official web portal to all federal, state and local government web resources and services.